This is the latest recevied weather packets stored in our database for station/object VE2XOX. If no packets are shown the sender has not sent any weather packets the latest 10 day(s).
| Time | Temp. | Humidity | Pressure | Rain* | Wind** | Luminosity | Snow |
|---|---|---|---|---|---|---|---|
| 1778037614 | 12.22° C | 90% | 1003.1 hPa | 0 mm | - | - | - |
| 1778037319 | 12.22° C | 90% | 1003.1 hPa | 0 mm | - | - | - |
| 1778037030 | 12.22° C | 90% | 1003.1 hPa | 0 mm | - | - | - |
| 1778036717 | 12.22° C | 90% | 1003 hPa | 0 mm | - | - | - |
| 1778036431 | 12.22° C | 90% | 1003 hPa | 0 mm | - | - | - |
| 1778036116 | 12.22° C | 90% | 1002.8 hPa | 0 mm | - | - | - |
| 1778035823 | 12.22° C | 90% | 1002.9 hPa | 0 mm | - | - | - |
| 1778035537 | 12.22° C | 90% | 1002.7 hPa | 0 mm | - | - | - |
| 1778035222 | 12.22° C | 90% | 1002.7 hPa | 0 mm | - | - | - |
| 1778034617 | 12.22° C | 90% | 1002.5 hPa | 2.03 mm | - | - | - |
| 1778034330 | 12.22° C | 90% | 1002.5 hPa | 2.03 mm | - | - | - |
| 1778034016 | 12.22° C | 89% | 1002.5 hPa | 3.05 mm | - | - | - |
| 1778033723 | 12.78° C | 89% | 1002.4 hPa | 3.05 mm | - | - | - |
| 1778033435 | 12.78° C | 89% | 1002.3 hPa | 3.05 mm | - | - | - |
| 1778033123 | 12.78° C | 89% | 1002.3 hPa | 4.06 mm | - | - | - |
| 1778032828 | 12.78° C | 89% | 1002.4 hPa | 4.06 mm | - | - | - |
| 1778032516 | 12.78° C | 89% | 1002.3 hPa | 4.06 mm | - | - | - |
| 1778032229 | 12.78° C | 89% | 1002.2 hPa | 5.08 mm | - | - | - |
| 1778031915 | 12.78° C | 88% | 1002.5 hPa | 5.08 mm | - | - | - |
| 1778031621 | 13.33° C | 88% | 1002.5 hPa | 5.08 mm | - | - | - |
| 1778031333 | 13.33° C | 87% | 1002.6 hPa | 4.06 mm | - | - | - |
| 1778031016 | 13.33° C | 87% | 1002.4 hPa | 3.05 mm | - | - | - |
| 1778030723 | 13.33° C | 86% | 1002.3 hPa | 3.05 mm | - | - | - |
| 1778030432 | 13.33° C | 86% | 1002.1 hPa | 2.03 mm | - | - | - |
| 1778030115 | 13.89° C | 85% | 1002 hPa | 2.03 mm | - | - | - |
* Rain latest hour (hover to see other rain measurements)
** Current wind speed in m/s (hover to see current wind gust speed)